Wind_Speed
32 35 38 41 45 49 54 58 59 59 58 56 55 54 51 49 47 44 43 42 41 39 38 36 35 33 31 30 30 30 30 29 30 30 30 30 30 30 30 31 31 32 33 33 33 34 34 34 35 36 37 38 38 38 38 38 38 38 37 37 37 37 38 39 39 39 39 41 44 44 43 42 42 42 42 43 45 46 46 46 46 46 47 47 47
26 28 30 32 35 38 43 48 51 54 55 55 55 54 53 51 49 47 45 43 41 39 38 37 36 34 33 31 30 29 29 29 29 30 30 30 30 30 30 31 31 31 31 31 32 32 33 33 34 34 35 35 36 36 37 37 36 36 36 36 37 38 39 41 41 42 43 45 46 46 44 44 44 43 42 42 44 44 45 45 45 45 45 46 47
21 24 27 28 27 28 32 39 45 49 50 51 52 52 52 51 50 49 47 44 41 39 37 37 37 36 35 34 32 30 29 30 30 30 30 30 30 30 30 30 29 29 29 29 30 30 30 31 31 32 32 33 34 35 36 35 34 34 34 34 36 38 39 41 42 43 44 46 46 45 45 46 46 45 42 42 42 43 43 43 42 42 42 43 43
22 22 28 29 26 27 28 32 39 44 45 46 48 49 49 48 48 48 47 45 43 40 38 38 37 36 36 34 33 31 30 29 29 29 29 29 29 29 28 29 28 28 28 28 28 29 29 30 30 31 31 33 34 34 35 35 35 35 35 36 38 39 40 41 42 43 43 43 45 46 47 48 48 46 43 41 41 41 41 41 41 41 41 41 41
23 18 24 25 26 30 30 29 33 38 40 42 44 46 47 47 46 46 46 46 44 41 39 38 37 36 35 34 33 32 30 29 28 27 28 28 28 28 28 27 27 27 27 27 28 28 29 30 31 31 32 34 35 36 36 37 38 38 39 41 42 41 41 41 41 41 42 44 46 48 48 49 48 46 43 41 40 40 40 40 40 40 41 41 41
23 19 23 25 28 33 35 36 37 35 33 34 35 37 40 42 42 43 44 44 43 41 40 39 38 37 36 35 34 32 31 30 29 29 29 29 30 30 29 28 28 28 28 28 29 30 31 32 33 34 35 37 37 37 37 38 39 40 41 41 40 39 40 41 41 42 45 47 49 49 49 48 48 46 43 42 41 40 40 41 41 41 41 42 42
26 25 29 31 33 36 38 41 41 36 32 29 29 29 30 32 33 35 37 38 38 38 38 38 39 38 37 36 35 32 31 31 31 31 31 31 31 31 31 30 30 30 30 30 31 31 32 34 35 36 37 37 36 36 37 39 39 40 39 38 38 39 41 42 44 45 48 50 52 51 49 48 48 46 45 44 43 42 43 43 43 43 43 43 44
30 32 35 36 36 36 37 38 37 34 32 31 31 30 27 27 29 31 33 35 35 36 36 37 38 37 37 36 34 33 33 33 34 34 33 32 31 32 32 32 32 32 32 33 33 33 34 36 37 37 37 36 37 38 39 39 39 39 39 40 41 42 43 45 47 49 51 54 54 52 51 50 49 48 47 46 46 46 46 46 46 46 46 46 46
32 34 38 39 38 37 37 36 34 33 32 32 34 33 30 30 31 34 36 37 38 38 37 37 37 37 36 35 35 35 35 35 35 35 34 33 34 34 35 35 35 35 36 36 36 36 37 38 38 38 38 38 40 41 41 40 40 41 42 43 45 46 48 50 52 54 56 56 55 54 53 52 51 49 48 49 49 49 49 49 50 50 49 49 50
34 35 37 41 41 40 38 37 36 35 34 34 36 35 33 34 35 38 38 38 38 37 36 36 37 37 37 38 38 38 38 38 37 36 36 36 36 36 36 37 38 38 39 39 40 41 41 41 40 40 39 40 41 42 43 42 42 43 44 46 48 50 52 55 57 59 59 58 56 56 56 55 53 52 51 51 53 53 53 53 53 54 52 52 53
37 38 40 42 43 42 40 39 38 38 38 37 37 37 37 37 38 40 40 40 39 37 35 35 36 36 37 37 38 39 39 38 37 37 38 38 38 38 39 41 42 43 42 42 43 44 44 43 42 41 40 40 42 44 45 45 46 47 48 50 52 54 57 59 61 61 60 59 58 58 58 58 57 56 54 54 55 57 58 58 57 57 57 57 58
39 40 43 44 44 43 41 40 40 41 42 41 41 41 41 39 40 41 42 41 41 41 39 38 38 39 38 37 38 40 40 39 38 39 40 41 41 43 44 45 46 46 46 46 46 46 45 43 42 40 40 40 42 44 46 47 49 51 54 56 58 59 60 62 63 63 62 61 59 58 59 61 61 60 59 58 58 59 61 62 62 62 61 62 62
40 41 44 44 43 42 41 41 40 40 40 42 44 45 44 42 42 42 42 42 42 43 42 42 42 42 41 41 41 43 44 43 42 43 45 45 46 47 47 48 49 49 49 48 48 46 44 42 40 40 41 42 45 47 49 51 54 57 60 62 63 64 65 65 65 64 63 61 59 57 59 63 64 63 63 62 62 62 63 64 66 67 66 66 66
44 44 44 44 43 42 42 43 42 40 40 41 44 45 46 45 45 45 44 43 43 43 42 41 41 41 42 43 43 44 46 46 45 47 48 48 48 49 50 51 51 50 49 48 47 46 44 43 43 43 44 47 49 52 55 57 60 63 66 67 67 68 68 67 66 65 64 62 61 60 61 63 65 65 65 66 66 66 66 67 69 70 70 70 70
47 46 45 45 45 46 46 46 46 45 43 43 43 45 46 46 47 48 47 46 45 45 44 43 43 43 43 44 45 46 47 47 48 49 50 50 51 52 53 53 52 50 48 47 47 47 47 47 48 48 50 52 56 60 63 64 66 69 71 70 69 69 68 67 66 65 64 63 63 63 64 64 65 66 67 69 69 69 69 70 71 72 72 73 74
49 48 47 48 50 51 51 50 48 47 46 45 45 46 46 47 47 48 49 49 48 48 49 49 49 49 49 49 50 50 50 50 50 50 51 51 52 52 52 51 50 49 48 48 49 51 52 53 54 56 57 60 64 67 68 68 70 71 72 71 70 69 68 66 65 64 65 65 65 66 67 67 68 69 70 72 72 72 72 73 74 74 74 75 77
51 48 48 50 53 55 57 57 55 52 51 49 48 48 48 48 47 48 49 50 50 49 50 51 51 51 51 50 51 51 51 51 50 51 51 51 51 51 52 52 52 52 53 53 55 58 59 61 63 65 65 66 69 72 73 73 73 73 72 71 70 69 67 67 67 67 68 69 69 69 70 70 70 71 72 73 74 75 75 76 77 77 75 76 78
55 51 49 48 50 52 54 57 58 58 57 56 54 53 52 51 50 50 51 52 52 51 51 51 51 51 50 49 49 51 52 52 53 53 54 54 54 54 55 56 57 58 59 60 62 64 67 69 71 72 71 71 73 75 75 75 74 73 72 71 70 69 68 69 70 72 72 73 73 73 72 73 74 74 74 74 75 77 77 77 79 79 78 78 80
60 57 54 52 51 51 51 52 54 56 58 59 59 59 59 58 57 56 55 55 55 55 55 53 53 53 52 51 52 54 55 55 56 56 57 57 58 59 60 61 62 63 65 67 69 71 72 73 74 75 74 73 74 75 74 74 73 73 73 71 71 70 69 71 74 75 76 77 77 77 77 78 79 78 77 76 77 78 78 77 79 80 80 81 82
65 63 61 59 58 58 57 56 55 54 55 56 58 60 62 63 64 63 63 61 60 60 60 60 59 59 58 58 58 59 60 60 61 62 63 64 65 66 68 68 70 71 73 74 75 74 73 73 74 75 75 74 74 74 74 75 75 75 74 74 74 74 74 76 79 80 80 81 81 82 82 82 82 81 80 79 79 79 78 78 79 80 81 82 83
68 68 66 65 64 64 64 63 62 61 60 59 58 59 60 62 64 65 67 67 67 67 67 67 67 67 67 67 68 68 69 69 70 71 72 72 73 74 75 75 76 76 77 77 76 75 75 74 74 76 76 76 77 76 76 76 77 78 79 79 80 80 81 82 83 83 83 83 83 84 84 83 83 82 81 80 80 80 80 81 82 82 83 84 85
71 72 71 70 69 69 68 68 68 68 68 67 67 66 65 65 66 66 67 68 70 71 71 72 73 73 73 74 74 74 75 75 76 76 77 78 78 79 79 80 80 80 79 79 79 79 78 77 77 79 79 79 80 81 81 81 82 83 84 85 85 85 85 86 86 86 85 84 83 83 84 83 83 83 83 82 81 81 82 84 85 85 86 86 87
73 74 74 74 74 73 72 72 72 72 72 72 72 72 72 72 72 71 71 72 72 73 74 75 76 76 77 77 77 77 77 78 78 78 80 81 82 82 83 83 83 83 83 83 83 84 84 83 84 84 84 84 85 86 87 87 88 88 89 89 89 89 88 88 88 87 86 85 84 84 84 84 84 84 84 83 83 84 86 88 88 88 88 89 90
74 75 76 77 77 77 77 76 75 75 75 74 74 74 74 74 74 74 74 74 75 75 76 76 77 78 78 79 79 80 80 81 81 82 83 85 85 86 86 86 87 87 87 88 88 88 88 88 88 89 89 90 90 90 91 91 91 92 92 92 92 91 90 90 89 88 87 87 87 87 87 87 87 87 86 86 86 89 91 91 91 91 92 93 94
75 76 78 79 80 80 80 80 80 79 79 78 78 78 78 78 77 78 78 78 78 78 78 79 79 80 81 81 82 83 84 84 85 86 87 88 89 89 90 90 91 91 91 91 90 90 90 90 91 91 92 93 93 93 93 93 94 94 94 93 93 93 92 91 91 90 90 90 91 91 91 90 90 90 91 91 91 93 95 95 95 95 96 97 97
74 76 77 79 80 81 82 83 83 83 83 83 83 82 82 82 83 83 84 84 84 84 85 85 86 86 87 87 88 88 88 89 89 90 91 91 92 92 93 93 94 94 94 94 93 93 94 93 93 93 94 94 95 95 95 95 95 95 95 95 95 94 94 93 93 93 93 93 93 94 94 94 95 95 96 96 96 96 97 98 99 100 100 100 101
74 75 76 78 80 82 83 84 85 86 86 86 86 86 86 86 87 87 88 88 89 89 90 91 91 92 92 93 93 93 93 93 94 95 95 95 95 96 96 96 96 96 96 96 96 96 96 96 96 95 95 95 96 96 96 96 96 96 96 96 96 96 95 95 95 96 96 96 97 98 98 98 99 100 100 100 99 100 101 102 103 103 104 104 104
76 76 76 77 79 81 83 84 85 86 87 87 87 88 88 88 89 89 90 90 91 91 92 93 93 93 94 95 95 95 96 96 96 97 97 97 97 97 97 96 96 97 97 97 97 97 98 98 98 98 97 97 97 97 98 98 98 98 98 98 98 98 98 98 99 100 100 100 101 101 101 102 102 103 103 103 103 103 104 104 105 106 107 108 108
78 78 77 77 78 79 81 83 85 86 86 87 88 89 90 91 91 92 92 92 93 93 93 94 94 95 96 96 97 97 97 97 97 97 97 97 98 98 97 97 97 98 98 98 99 99 99 99 99 99 99 99 98 98 98 98 99 99 99 100 100 100 101 102 103 103 102 103 103 104 104 105 105 105 105 105 105 106 106 106 107 108 109 109 109
79 78 77 76 76 76 77 78 79 81 82 83 84 86 87 89 91 92 93 94 94 95 95 95 96 96 97 97 97 97 96 97 97 97 97 98 98 98 98 98 98 98 99 99 99 99 99 100 100 100 100 100 100 100 100 101 101 101 102 103 103 103 103 104 104 104 104 105 105 106 106 107 107 106 106 106 107 107 108 108 109 109 109 110 110
78 78 78 76 76 75 75 75 75 76 77 78 79 81 83 85 88 91 93 94 95 96 96 96 97 97 97 97 97 97 97 97 97 97 98 98 98 99 99 99 99 99 99 99 100 101 101 101 102 102 103 103 103 103 104 104 105 105 106 106 106 106 106 106 106 107 107 107 106 107 107 107 108 107 107 107 107 108 109 109 109 109 109 110 110
79 80 80 80 79 79 78 78 78 78 79 80 82 83 85 88 90 92 94 96 97 97 98 98 98 98 97 97 97 97 97 98 98 98 98 98 99 99 100 100 100 100 101 102 103 104 104 104 105 105 106 106 106 106 106 107 108 108 108 108 108 108 108 108 107 107 107 107 106 106 107 107 107 107 107 107 108 108 108 107 106 106 106 107 107
78 79 81 82 83 83 84 84 84 85 86 87 88 90 92 93 94 96 97 98 98 99 98 98 98 98 98 98 98 98 98 98 99 99 99 100 100 101 101 102 102 103 104 105 106 106 106 107 107 108 108 107 107 107 107 107 108 108 108 108 109 108 108 107 106 106 105 105 105 105 106 106 105 105 105 104 103 103 103 102 101 100 100 100 100
76 78 79 81 83 84 86 87 88 90 91 92 93 94 95 96 97 97 98 98 98 98 98 97 97 97 97 98 98 98 99 99 100 100 101 102 102 103 104 105 105 106 106 107 107 108 108 108 108 108 108 107 106 106 105 106 106 107 107 107 107 106 105 104 104 103 102 102 102 102 102 101 101 100 98 96 95 95 95 95 94 93 93 93 93
78 78 79 80 82 83 84 86 88 89 91 92 93 94 94 95 95 96 96 96 96 96 96 96 97 97 98 98 99 99 100 101 101 102 103 104 105 105 106 107 107 108 108 109 109 109 109 109 108 108 107 106 105 105 104 104 105 105 105 105 105 103 102 101 101 100 98 97 96 96 96 95 94 92 90 89 89 89 89 89 89 89 88 87 87
80 81 82 82 83 84 85 86 87 88 90 91 92 92 93 93 94 94 94 95 95 95 96 97 98 98 99 100 101 101 102 103 104 105 105 106 107 107 108 108 108 109 109 109 109 109 108 108 108 108 107 107 106 105 104 104 104 103 103 102 101 99 97 96 95 95 94 93 92 91 90 89 87 86 85 85 84 84 85 85 85 85 83 82 82
83 84 84 85 86 86 87 87 88 89 90 91 92 93 94 94 95 95 95 96 97 97 98 98 99 100 101 102 103 104 105 105 106 107 107 108 108 109 109 109 109 109 109 109 109 108 108 108 108 107 106 105 104 103 101 100 99 98 97 95 93 92 90 89 89 88 88 87 86 85 84 83 82 81 81 81 80 79 80 80 79 79 78 77 76
87 87 87 88 88 89 89 89 90 91 91 92 93 94 95 95 96 96 97 97 98 98 99 100 100 101 102 103 104 105 106 107 107 108 109 109 110 110 110 110 110 110 110 110 109 109 108 107 106 104 103 101 99 98 96 94 92 91 90 88 87 85 83 82 81 81 80 80 79 78 77 76 76 75 76 76 75 75 74 74 73 73 72 71 71
89 89 90 90 91 91 91 92 92 93 93 94 95 96 96 97 97 98 98 98 99 100 100 101 101 102 103 104 105 106 107 107 108 108 109 110 110 110 110 110 110 109 109 108 107 106 104 102 100 99 97 96 94 92 90 88 86 85 83 82 80 78 76 75 74 73 73 74 72 71 71 70 70 70 71 71 71 70 70 69 69 68 68 67 67
91 92 92 92 93 93 93 94 94 95 96 96 97 97 98 98 99 99 99 100 100 101 101 102 103 103 104 104 105 106 106 106 107 107 107 107 107 107 106 105 104 103 102 100 99 97 95 94 92 91 89 88 86 85 83 81 79 77 76 74 73 71 70 69 67 67 68 68 68 67 67 66 66 66 67 67 67 67 66 65 64 63 63 64 64
93 94 94 94 95 95 95 96 96 97 97 98 98 99 99 99 100 100 100 100 101 101 101 102 102 102 103 103 103 103 103 102 102 101 101 100 99 98 97 96 95 93 92 90 89 87 86 84 83 82 80 79 78 76 75 73 72 70 69 68 67 66 65 64 63 62 63 64 64 63 63 63 62 63 63 63 64 64 63 62 60 59 59 59 60
92 92 93 93 94 94 95 95 96 96 97 97 98 98 98 98 98 98 98 98 98 98 98 98 98 98 97 97 96 96 95 94 94 93 92 91 89 88 87 85 84 83 81 80 79 78 77 76 74 73 71 70 70 69 69 68 67 66 65 64 63 62 61 61 60 59 59 59 59 59 59 59 59 60 60 60 60 60 59 59 58 57 57 56 56
89 89 89 90 90 91 91 92 92 92 93 93 93 94 94 94 94 93 93 93 93 93 92 92 91 90 89 89 88 88 87 86 86 84 83 81 80 79 77 76 75 74 73 73 72 71 70 69 67 66 65 64 64 64 64 64 63 63 62 61 60 59 58 57 57 56 55 55 55 56 56 56 56 56 57 57 57 57 57 57 56 56 55 54 54
87 87 88 88 88 88 88 88 88 89 89 89 89 89 89 89 89 88 88 88 87 86 85 85 84 83 83 82 81 81 80 79 78 76 75 74 72 71 70 69 68 68 67 67 66 66 65 64 63 62 61 60 60 61 61 60 60 59 59 58 58 57 56 55 54 53 53 52 52 52 53 53 53 54 54 54 54 54 54 54 54 54 53 52 52
85 86 86 86 86 86 86 86 86 86 86 86 86 86 85 85 84 84 83 83 82 81 80 79 78 77 76 76 75 74 74 73 71 70 68 67 66 65 64 63 63 63 62 62 62 61 61 60 60 59 58 57 57 58 58 57 56 55 55 55 54 54 54 53 52 51 51 50 50 50 51 51 52 52 52 52 51 51 51 51 51 50 50 49 49
83 83 84 84 83 83 83 83 83 83 83 83 82 82 82 81 80 79 78 77 76 75 74 73 72 72 71 70 70 69 68 67 66 64 63 62 61 60 60 60 59 59 59 58 58 58 57 57 57 57 55 54 54 55 56 55 54 52 51 51 51 50 50 50 50 50 50 50 50 50 50 50 50 50 50 50 49 49 48 48 48 47 47 46 46
78 79 79 80 79 79 79 79 79 79 79 78 78 78 77 76 75 74 72 71 70 69 69 68 68 67 67 66 66 65 64 63 61 60 59 58 57 57 57 57 56 56 55 55 55 55 54 54 55 55 54 52 50 51 52 52 51 50 49 48 48 47 47 47 48 48 48 49 49 49 48 48 48 48 48 48 48 47 46 45 45 44 43 43 43
74 74 75 75 75 75 75 75 74 74 74 74 73 72 72 70 69 68 67 67 66 66 65 65 64 64 63 62 62 61 60 59 58 57 56 55 55 55 55 54 53 53 53 53 53 52 52 52 52 52 52 50 48 48 48 49 48 48 47 46 46 45 45 45 46 46 46 47 47 47 46 46 46 46 46 46 46 45 44 43 42 41 41 40 40
70 70 70 71 71 70 70 70 70 70 69 69 68 67 66 65 65 64 64 64 63 63 62 61 60 60 59 59 58 57 56 55 54 54 53 53 53 53 52 51 50 50 50 50 50 50 49 49 49 50 49 48 47 46 46 46 46 46 45 45 44 44 44 44 44 44 44 43 43 44 44 44 44 44 43 43 43 43 42 41 40 39 38 38 37
66 66 66 66 66 66 66 66 65 65 65 64 63 63 62 62 62 61 61 60 60 59 58 58 57 57 56 56 56 55 54 53 52 51 51 51 51 51 50 49 48 48 48 48 48 47 47 46 46 47 47 47 45 44 44 44 45 45 44 43 43 43 42 42 42 41 41 41 40 41 41 41 41 41 41 40 39 39 38 38 37 37 36 36 35
61 62 62 62 61 61 61 61 61 61 61 60 59 59 59 59 59 58 58 57 57 56 56 55 55 55 55 55 54 53 52 51 50 49 49 49 50 49 47 47 47 46 45 45 45 45 45 44 44 44 44 44 44 43 43 43 43 43 43 43 42 42 41 40 40 39 38 38 38 38 38 38 38 38 37 37 36 35 35 35 34 33 33 33 33
Wind_Direction
250 248 246 244 243 243 245 246 247 248 248 248 249 251 254 256 259 262 265 268 270 271 273 275 276 276 276 276 274 270 265 262 259 258 257 255 255 256 257 259 260 261 262 263 263 263 264 264 264 265 265 266 267 268 269 270 271 270 269 267 264 261 260 262 266 271 279 289 294 296 299 302 303 301 297 295 294 293 294 293 291 289 288 286 285
252 250 249 249 247 248 250 252 253 252 251 250 251 254 256 259 263 265 268 270 271 272 273 273 274 275 276 277 277 273 267 262 259 258 257 257 258 258 259 260 261 261 263 264 265 265 265 266 266 267 267 268 269 270 270 270 270 270 270 269 268 267 267 269 271 275 282 289 292 295 298 301 302 300 296 293 293 294 294 294 292 291 290 289 287
242 243 244 246 248 250 253 256 257 256 255 254 254 256 258 261 264 266 268 270 271 271 271 271 272 273 275 277 276 273 268 263 259 257 256 256 256 257 258 259 259 260 261 262 264 265 266 267 268 269 270 271 271 271 271 270 271 272 274 275 277 277 277 277 278 279 283 288 293 298 300 300 300 298 294 291 291 292 293 293 292 292 291 290 289
217 232 239 239 237 238 244 253 257 256 253 252 253 254 256 259 261 264 266 267 268 269 269 270 270 271 273 274 274 272 268 264 260 256 255 255 255 255 256 257 258 259 261 262 263 265 266 268 269 271 272 272 272 272 271 271 273 275 276 278 281 281 280 280 280 282 286 293 299 302 301 299 298 297 293 289 289 289 289 291 291 291 291 290 290
200 223 242 238 229 228 229 235 246 252 252 250 251 252 253 255 257 260 263 265 266 267 267 268 268 269 271 272 272 271 268 265 262 260 260 260 259 257 256 257 258 259 261 262 263 265 267 268 269 270 271 271 272 272 271 272 273 274 276 278 280 281 281 282 284 287 292 298 302 302 300 298 297 295 291 288 287 286 287 288 288 289 289 290 289
193 213 235 233 228 228 226 225 230 241 250 254 255 254 254 256 257 260 263 264 266 266 267 267 268 268 270 271 271 271 270 267 266 266 266 268 266 262 259 258 258 259 261 262 263 265 266 267 267 268 269 270 270 270 270 272 273 274 275 277 280 283 286 288 290 293 295 299 302 301 299 298 296 294 290 287 286 285 285 286 287 287 287 288 288
197 210 223 225 225 228 230 230 231 236 246 253 257 257 257 258 258 259 261 263 265 266 267 268 269 270 270 271 271 272 271 270 270 269 270 271 270 265 262 261 260 260 261 262 264 265 266 267 269 270 270 270 269 270 271 273 274 274 277 280 285 289 291 293 294 295 296 298 300 300 298 297 296 294 291 289 287 286 286 287 287 288 288 289 289
206 214 221 223 225 228 232 235 237 241 247 250 254 258 260 259 257 258 260 263 265 266 267 268 269 270 270 270 270 271 271 271 272 271 271 271 268 264 263 264 265 265 266 265 265 266 268 270 271 272 271 270 270 272 274 277 278 279 281 284 287 289 291 293 295 296 296 298 298 297 296 296 296 295 292 291 290 289 289 289 289 290 291 292 292
214 219 223 224 225 229 233 237 241 245 248 250 253 257 258 257 256 257 260 263 265 266 267 267 268 268 268 269 269 270 271 272 273 272 271 270 268 266 265 266 268 269 269 267 266 269 274 275 275 274 273 271 271 273 278 283 285 284 284 285 286 288 290 293 296 297 297 297 297 296 296 297 297 296 294 293 294 294 293 293 293 292 293 294 294
216 223 227 227 228 230 233 237 242 244 244 247 250 254 255 255 256 257 258 260 262 263 265 266 267 267 268 269 271 272 273 274 274 273 273 273 273 271 269 271 274 275 272 269 270 275 280 280 278 277 275 273 273 277 283 288 288 286 285 284 284 285 288 293 296 297 297 297 296 296 297 299 299 298 297 295 295 297 297 297 296 295 295 295 294
216 223 228 230 230 231 233 236 239 240 240 242 245 249 252 253 255 257 258 259 260 261 262 263 264 266 267 269 270 272 274 275 276 274 274 274 275 275 276 278 280 279 277 276 276 279 282 282 281 280 279 276 276 280 283 285 286 286 286 286 286 286 288 292 295 295 295 296 297 296 297 300 301 301 300 297 296 296 298 298 296 295 295 294 294
214 221 226 229 230 232 234 236 237 239 240 240 242 244 247 251 253 256 259 261 261 261 261 261 262 264 267 267 267 270 272 274 274 273 273 274 276 278 280 281 282 282 281 281 282 283 284 284 283 284 283 281 280 281 282 282 283 285 286 288 289 289 289 291 293 294 295 297 297 295 295 298 301 302 301 299 298 296 296 296 295 295 295 295 295
213 219 223 227 230 232 234 235 236 237 237 238 240 243 246 249 253 255 257 260 261 262 262 263 265 266 267 267 267 269 272 274 275 275 275 277 278 280 282 283 283 284 284 284 285 286 286 284 284 285 283 281 280 280 279 279 281 283 286 288 289 290 290 291 292 294 296 297 297 294 293 295 299 300 300 299 298 297 296 294 293 295 296 296 296
216 220 223 226 229 231 232 233 233 234 235 237 240 243 245 248 251 252 253 256 259 261 262 264 266 267 267 268 270 272 274 277 278 278 280 281 282 283 284 284 284 285 286 287 287 287 286 285 286 285 281 279 277 276 276 278 280 283 286 288 289 291 292 292 293 295 296 297 296 295 293 294 295 298 298 296 296 297 295 292 292 294 295 295 295
221 223 225 227 229 230 230 231 233 235 239 241 243 245 246 247 249 250 251 253 256 259 260 261 262 264 266 269 271 273 275 277 279 280 282 284 285 285 286 287 287 288 288 288 287 285 285 284 282 280 278 276 275 275 276 278 281 284 287 289 290 292 293 294 294 295 295 295 295 294 293 293 293 293 293 292 293 293 291 290 290 291 291 292 292
223 227 229 230 230 230 230 232 235 238 242 245 246 247 248 248 249 250 251 253 256 259 261 262 262 264 267 270 272 274 275 277 278 280 281 282 283 284 285 285 286 285 285 283 281 280 280 279 277 276 276 277 277 277 279 281 284 287 289 290 291 292 292 292 292 292 292 292 291 290 290 290 290 290 289 290 290 290 288 288 288 288 289 289 289
223 227 231 234 235 235 235 236 238 241 244 246 247 247 248 248 249 250 250 253 256 260 262 264 265 266 268 270 272 272 273 274 274 274 274 274 274 275 276 276 277 276 276 275 274 274 275 275 275 276 277 278 279 280 283 285 287 288 289 289 290 290 290 288 288 289 289 289 289 289 289 289 289 289 289 289 289 288 287 288 288 288 288 288 288
221 223 228 233 237 239 240 241 243 245 248 248 248 247 246 247 247 248 249 251 253 257 260 261 263 263 263 264 264 264 266 267 267 267 268 267 267 267 268 269 270 270 271 271 271 273 275 277 278 279 280 281 282 284 286 287 287 287 288 288 288 288 288 287 288 289 290 290 291 291 290 290 289 289 289 289 288 288 289 289 289 290 290 289 287
222 223 225 228 232 236 240 243 245 248 250 252 252 251 250 249 249 249 249 249 249 251 253 255 256 257 257 257 256 256 258 259 260 262 263 264 264 265 266 267 268 269 270 272 274 276 278 280 281 282 283 284 284 285 286 286 286 286 286 286 286 286 285 285 287 289 290 290 290 290 289 289 289 289 289 289 288 289 289 289 288 289 289 287 287
225 226 227 229 231 233 236 239 241 244 246 249 252 253 253 253 253 253 252 251 250 250 250 251 252 254 255 255 256 256 257 258 259 261 262 264 265 267 268 270 271 273 275 276 278 279 280 280 281 282 283 283 283 282 283 283 283 284 284 284 284 284 284 285 286 288 288 289 289 289 289 289 289 290 290 290 290 290 289 288 288 288 288 288 289
229 229 230 231 233 234 236 237 239 241 242 244 247 249 252 254 255 255 255 255 255 255 254 254 255 257 258 259 260 261 262 263 264 265 266 268 269 271 272 274 275 276 277 278 279 280 280 280 280 280 280 281 280 280 280 280 281 282 282 283 283 284 285 285 286 287 287 287 288 288 289 289 289 290 290 291 291 291 291 290 289 289 289 291 292
231 232 233 234 235 236 238 239 240 241 242 244 246 248 249 252 254 256 256 257 258 258 259 259 260 261 263 264 264 265 265 266 267 268 269 271 272 273 274 275 276 277 277 278 279 279 279 279 278 278 279 279 279 280 280 280 281 281 282 283 283 284 285 285 285 286 286 287 288 288 289 289 289 289 290 290 291 291 290 289 288 289 291 292 293
233 234 235 236 237 238 239 240 242 243 244 245 247 248 250 252 254 255 256 257 258 259 259 260 261 262 263 264 265 266 266 267 268 269 271 272 273 274 274 275 276 277 277 278 279 279 279 280 279 279 280 280 280 281 281 281 282 282 282 283 283 284 284 284 285 285 286 287 288 288 288 288 288 288 289 290 291 290 289 288 289 291 292 293 293
236 237 237 238 239 240 241 242 244 245 246 247 248 249 251 252 253 254 256 257 258 258 259 260 261 261 262 263 264 265 266 267 268 270 271 272 273 274 275 275 276 277 278 278 279 279 280 280 280 280 280 280 281 281 281 282 282 283 283 283 284 284 284 285 286 286 287 287 287 288 288 288 288 289 291 291 291 289 289 291 292 293 293 293 293
240 240 241 241 242 243 244 245 246 247 248 249 250 251 252 253 254 255 256 257 258 259 260 261 261 262 263 264 265 266 267 269 270 271 272 273 274 275 275 276 276 277 277 277 278 278 279 279 279 280 280 280 281 281 282 282 283 283 284 284 284 285 285 286 286 286 286 286 287 288 289 290 291 292 292 291 291 290 291 293 293 292 292 292 293
242 244 244 245 245 245 246 247 248 249 250 251 252 253 254 255 256 257 258 259 260 261 261 262 263 264 264 265 266 267 269 270 271 272 273 274 275 276 276 276 277 277 277 277 277 278 278 279 279 280 280 281 281 282 283 283 283 284 284 284 285 285 285 285 285 286 286 287 289 290 291 292 292 292 292 292 292 292 292 291 291 291 292 292 292
243 245 247 248 249 249 249 249 250 250 251 252 254 255 256 257 258 259 260 261 262 262 263 264 265 266 267 268 268 269 270 271 272 274 275 276 277 278 278 279 280 280 280 280 280 280 281 281 281 281 281 281 282 282 283 283 283 284 284 284 284 285 285 286 288 289 290 291 291 291 292 292 291 291 291 291 291 290 290 290 290 291 291 291 291
244 246 248 250 252 253 253 253 253 254 254 255 256 257 258 259 260 260 261 262 263 264 265 266 267 268 269 271 272 273 274 275 276 277 278 278 279 280 280 281 281 281 281 282 282 282 282 282 282 282 282 283 283 283 284 284 285 285 286 286 287 288 288 289 290 290 290 290 290 290 290 290 290 290 289 289 289 288 288 288 288 288 288 289 289
245 247 249 252 254 256 257 258 258 259 259 260 260 261 261 262 262 263 263 264 265 266 267 268 269 270 272 273 274 275 276 277 277 278 278 279 279 280 280 280 281 281 281 282 282 282 282 283 283 283 283 284 284 284 285 285 285 286 286 286 286 287 287 287 287 288 288 288 288 288 288 288 288 288 287 287 287 287 287 286 286 286 286 287 287
245 247 249 251 253 255 257 259 261 262 262 263 264 264 265 265 266 266 266 266 267 267 268 269 270 271 272 274 274 275 276 277 277 278 278 278 279 279 279 280 280 280 280 281 281 281 281 282 282 283 283 283 283 284 284 284 284 284 284 284 284 284 285 285 285 285 286 286 286 286 286 286 286 286 286 286 285 285 285 285 285 285 285 286 286
246 247 248 249 251 253 254 256 257 258 260 261 262 263 263 264 265 266 267 268 269 270 271 272 272 273 274 275 276 276 276 277 277 277 277 278 278 278 279 279 279 279 279 280 280 280 281 281 281 282 282 282 282 283 283 283 283 283 284 284 284 284 284 285 285 285 285 285 285 285 285 285 285 285 285 284 284 284 284 283 283 284 284 284 285
247 248 248 249 250 251 252 253 253 254 255 257 258 259 260 261 263 264 266 268 269 271 272 273 274 274 275 275 276 276 276 276 276 276 277 277 277 278 278 278 278 278 279 279 280 280 280 281 281 281 281 282 282 282 283 283 283 284 284 284 285 285 285 285 285 285 285 285 285 284 284 284 284 284 284 283 283 283 282 282 282 282 282 282 282
249 249 250 250 250 251 252 252 253 254 255 256 257 258 259 261 262 264 266 268 269 271 272 273 273 274 274 274 274 274 275 275 275 276 276 277 277 277 277 277 278 278 278 279 279 280 280 280 281 281 281 282 282 283 283 283 284 284 284 284 284 284 285 285 285 284 284 284 284 284 283 283 283 283 282 282 282 282 282 281 281 281 280 280 280
251 252 252 252 252 253 254 254 255 256 257 258 259 260 261 262 264 265 266 268 269 270 271 272 272 273 273 274 274 274 275 275 275 276 276 276 276 277 277 278 278 278 279 279 280 280 281 281 281 282 282 283 283 284 284 284 284 284 285 285 285 285 285 285 285 284 284 284 284 283 283 283 282 281 281 281 281 281 280 280 280 279 279 278 278
253 253 253 253 254 254 255 256 257 258 259 259 260 261 262 263 265 266 267 268 269 269 270 271 272 272 273 273 274 274 275 275 275 276 276 276 277 277 278 278 279 279 280 280 281 281 282 282 283 284 284 285 285 285 285 286 285 285 285 285 285 285 285 285 285 285 284 284 283 283 282 282 281 281 281 281 280 280 279 279 278 278 277 277 277
254 254 254 255 255 255 256 257 257 258 259 260 261 262 263 264 265 266 267 268 269 270 270 271 272 273 273 274 274 275 275 275 276 276 276 277 277 278 278 279 279 280 281 281 282 282 283 284 284 285 285 286 286 286 286 286 286 285 285 285 285 285 285 284 284 284 284 283 283 282 282 282 282 281 281 280 279 278 278 277 277 277 277 277 277
256 256 256 257 257 257 258 258 259 259 260 261 262 263 264 265 266 267 268 269 270 271 271 272 272 273 274 274 275 275 276 276 276 277 277 278 278 279 280 280 281 282 282 283 283 284 284 285 285 285 286 286 286 286 285 285 285 285 284 284 284 284 284 283 283 283 283 282 282 281 281 281 281 280 280 279 278 277 277 276 277 277 277 277 277
257 258 258 259 259 260 260 261 261 262 262 263 264 265 265 266 267 268 269 269 270 271 271 272 272 273 274 274 275 275 276 277 277 278 278 279 280 280 281 282 282 283 283 284 284 284 285 285 285 286 286 286 286 285 285 285 285 285 284 284 284 284 284 283 283 283 282 281 281 281 280 280 280 279 278 278 277 277 277 277 277 278 278 278 278
258 259 259 260 260 261 262 262 263 264 264 265 265 266 266 267 268 268 269 270 270 271 272 272 273 273 274 274 275 276 276 277 277 278 279 279 280 280 281 281 282 282 283 283 283 284 284 284 285 285 285 285 285 285 285 285 285 285 284 284 284 284 284 283 283 282 282 281 281 281 280 279 279 279 278 278 278 278 278 278 279 279 279 279 279
259 260 260 261 261 262 263 263 264 264 265 265 266 266 267 268 268 269 269 270 271 271 272 272 273 273 274 274 275 275 276 276 277 277 278 278 279 279 280 280 281 281 281 282 282 282 283 283 283 283 284 284 284 284 284 284 285 285 285 284 284 284 284 283 282 281 281 281 280 280 280 279 279 279 278 278 278 279 279 279 279 279 279 279 279
259 259 260 261 261 262 262 263 263 264 264 265 266 266 267 267 268 269 269 270 270 271 271 272 272 273 273 274 274 275 275 275 276 276 277 277 278 278 279 279 280 280 281 281 282 282 282 283 283 283 283 283 284 284 284 285 285 285 284 284 284 284 283 283 282 281 281 280 280 280 280 280 279 279 279 279 279 279 280 280 280 279 278 278 278
258 258 259 259 260 260 261 262 262 263 263 264 265 265 266 267 267 268 268 269 269 270 271 271 272 272 273 274 274 275 275 276 276 276 277 277 278 279 279 280 280 281 282 282 282 282 282 283 283 283 284 284 284 285 285 285 285 285 284 284 284 284 283 283 283 282 281 281 281 281 280 280 280 280 280 280 280 280 281 281 281 280 279 278 277
259 259 260 260 260 261 261 262 262 263 263 264 265 266 266 267 267 268 269 270 270 271 272 272 273 274 275 275 276 276 276 277 277 278 278 279 280 280 281 282 282 282 283 282 282 282 283 283 284 284 284 285 285 285 285 285 285 285 285 285 285 285 284 284 284 283 282 282 282 281 281 281 281 280 280 281 281 281 281 281 280 280 280 279 279
260 261 261 262 262 263 263 264 264 265 266 266 267 268 268 269 269 270 271 272 272 273 274 275 276 276 276 276 277 277 278 278 279 280 281 281 282 282 283 283 283 282 282 282 282 283 284 284 285 285 285 285 285 284 284 284 285 285 285 286 286 286 286 286 285 285 285 284 283 283 283 283 282 282 282 281 281 281 280 280 280 280 279 279 278
261 262 262 263 263 264 265 265 266 267 267 268 268 269 270 270 271 272 272 273 274 275 276 276 276 276 277 277 278 279 279 280 281 282 282 282 282 282 282 282 282 281 281 282 283 284 285 285 286 286 286 286 286 285 285 285 285 285 285 286 286 287 287 287 287 287 287 286 286 285 285 285 284 284 283 282 281 281 280 280 280 279 279 279 278
261 261 262 263 263 264 265 265 266 267 267 268 269 269 270 271 271 272 273 274 275 275 275 276 276 277 277 278 279 280 280 281 281 282 282 282 282 282 282 281 282 282 283 284 284 285 286 286 287 287 286 286 286 286 286 286 286 286 285 286 286 287 287 288 288 288 288 288 287 287 286 286 285 284 284 283 282 282 281 280 280 280 279 279 278
260 261 261 262 263 263 264 265 265 266 267 267 268 269 270 271 272 273 273 274 274 274 275 275 276 277 278 278 279 279 280 281 281 281 282 282 282 282 282 282 283 284 285 285 286 286 287 287 287 287 287 287 286 286 286 287 287 287 287 287 287 287 287 287 287 288 288 288 287 287 286 285 285 284 284 283 283 282 282 281 280 280 279 279 278
260 260 261 262 262 263 263 264 265 265 266 267 267 268 269 270 271 272 272 273 273 274 274 275 276 276 277 277 278 279 279 280 281 282 283 283 283 283 282 283 284 285 285 285 286 287 287 288 288 288 288 288 288 288 287 287 288 288 288 288 288 288 288 287 287 286 286 286 286 285 285 284 284 283 283 283 282 282 282 281 281 280 279 278 278
259 260 260 261 261 262 263 263 264 265 265 266 267 268 269 270 270 271 271 272 273 273 274 274 275 275 276 277 278 279 279 281 282 283 283 283 283 282 283 284 284 284 285 286 286 287 287 288 289 289 290 290 290 290 289 289 289 289 289 288 288 288 288 287 287 286 286 285 284 284 283 283 282 281 281 281 281 281 282 282 281 281 280 279 278
259 260 260 261 261 262 262 263 264 264 265 266 266 267 268 269 269 270 270 271 272 272 273 274 275 276 276 277 278 279 280 281 282 282 282 282 281 281 282 283 283 284 285 286 287 287 288 289 289 290 291 291 291 291 290 289 289 289 288 288 287 287 287 286 286 286 285 284 283 283 283 282 281 281 281 280 280 280 280 280 280 280 279 278 277
260 260 260 261 261 262 262 262 263 264 264 265 266 266 267 267 268 269 270 271 272 273 274 275 275 276 277 278 278 279 280 281 281 281 281 281 281 281 282 283 283 284 285 286 287 288 289 289 290 290 291 291 291 290 289 289 288 288 288 288 288 287 287 287 287 286 285 284 283 283 282 281 281 281 280 279 279 279 280 280 279 279 277 276 275
Height
10647 10649 10650 10650 10652 10652 10650 10647 10645 10643 10643 10642 10640 10640 10640 10640 10641 10642 10642 10642 10642 10643 10644 10644 10645 10645 10645 10645 10645 10644 10644 10644 10644 10644 10644 10645 10645 10646 10646 10647 10647 10647 10648 10648 10648 10649 10649 10649 10649 10649 10649 10648 10648 10648 10648 10648 10648 10647 10647 10647 10647 10646 10646 10645 10644 10644 10643 10641 10640 10639 10637 10635 10633 10631 10629 10627 10625 10623 10621 10620 10619 10617 10617 10616 10615
10643 10644 10644 10646 10648 10648 10646 10643 10641 10639 10638 10638 10637 10636 10636 10636 10636 10637 10637 10637 10637 10638 10639 10639 10640 10641 10641 10641 10641 10641 10641 10640 10640 10641 10641 10641 10642 10642 10642 10642 10643 10643 10643 10644 10644 10644 10645 10645 10644 10645 10644 10644 10644 10644 10644 10644 10644 10643 10643 10643 10643 10642 10642 10641 10640 10639 10638 10636 10635 10633 10632 10630 10628 10626 10624 10622 10620 10618 10616 10615 10613 10612 10611 10610 10609
10637 10638 10639 10641 10644 10644 10641 10637 10634 10633 10632 10632 10632 10631 10631 10631 10631 10632 10632 10632 10633 10634 10635 10635 10636 10636 10636 10636 10637 10637 10637 10637 10637 10637 10637 10637 10637 10638 10638 10638 10638 10639 10639 10640 10640 10640 10640 10640 10640 10640 10640 10640 10640 10640 10640 10640 10640 10639 10639 10639 10638 10637 10637 10636 10636 10635 10633 10632 10630 10628 10626 10624 10622 10621 10619 10617 10615 10613 10611 10610 10608 10607 10606 10604 10603
10629 10632 10632 10636 10641 10640 10637 10633 10627 10623 10623 10624 10624 10624 10624 10625 10626 10626 10627 10628 10629 10630 10630 10631 10631 10631 10631 10632 10632 10633 10633 10633 10633 10633 10633 10634 10634 10634 10634 10634 10635 10635 10636 10636 10636 10636 10637 10637 10637 10637 10637 10637 10636 10636 10636 10636 10636 10635 10634 10634 10633 10632 10631 10631 10630 10629 10628 10626 10625 10622 10620 10619 10617 10615 10614 10612 10610 10609 10607 10605 10603 10602 10600 10599 10598
10622 10626 10626 10629 10632 10630 10628 10626 10618 10614 10614 10615 10616 10618 10619 10619 10621 10621 10622 10623 10624 10625 10626 10626 10627 10627 10627 10627 10628 10629 10629 10630 10630 10630 10630 10630 10631 10631 10631 10631 10632 10632 10632 10633 10633 10633 10633 10633 10633 10633 10633 10633 10632 10632 10632 10632 10631 10630 10630 10629 10628 10627 10626 10625 10624 10623 10622 10620 10619 10617 10615 10613 10611 10609 10608 10607 10605 10604 10602 10600 10598 10597 10595 10594 10593
10617 10620 10619 10618 10618 10617 10617 10614 10609 10607 10609 10610 10611 10613 10614 10615 10616 10617 10617 10617 10619 10620 10621 10621 10622 10622 10623 10623 10624 10625 10625 10626 10626 10627 10627 10627 10627 10628 10628 10628 10629 10629 10629 10629 10629 10630 10630 10630 10630 10630 10629 10629 10628 10628 10627 10627 10626 10625 10625 10624 10623 10622 10621 10620 10619 10618 10616 10614 10612 10611 10609 10607 10605 10603 10602 10601 10600 10598 10597 10595 10593 10592 10590 10588 10587
10612 10612 10610 10607 10607 10608 10609 10607 10605 10606 10607 10608 10608 10609 10610 10611 10612 10612 10612 10613 10614 10615 10616 10616 10617 10617 10618 10618 10619 10620 10621 10621 10622 10622 10623 10623 10624 10624 10624 10624 10625 10625 10625 10625 10626 10626 10626 10626 10626 10626 10625 10624 10624 10623 10622 10622 10621 10620 10619 10618 10618 10616 10615 10614 10613 10612 10610 10608 10606 10604 10603 10601 10600 10598 10596 10595 10593 10592 10591 10589 10588 10586 10585 10583 10582
10607 10605 10602 10601 10602 10604 10604 10604 10605 10605 10605 10605 10605 10605 10606 10607 10607 10608 10608 10609 10609 10610 10611 10611 10611 10612 10613 10613 10614 10615 10616 10616 10617 10618 10618 10619 10619 10619 10620 10620 10620 10621 10621 10621 10621 10622 10622 10622 10621 10621 10620 10620 10619 10618 10617 10617 10616 10614 10613 10612 10611 10610 10609 10608 10607 10606 10604 10602 10600 10598 10596 10595 10594 10592 10590 10589 10587 10586 10584 10583 10581 10580 10579 10577 10575
10602 10600 10598 10598 10599 10600 10601 10601 10601 10601 10601 10601 10600 10601 10602 10603 10604 10604 10604 10604 10605 10605 10606 10606 10606 10607 10608 10609 10609 10610 10611 10612 10612 10613 10614 10614 10614 10615 10615 10615 10616 10616 10616 10616 10617 10617 10617 10617 10617 10616 10615 10615 10614 10613 10612 10611 10610 10608 10607 10606 10605 10603 10602 10601 10600 10598 10596 10595 10593 10591 10590 10589 10587 10585 10584 10582 10580 10579 10577 10576 10574 10572 10572 10570 10567
10594 10594 10593 10593 10594 10596 10596 10596 10597 10597 10597 10597 10596 10596 10598 10598 10599 10599 10600 10600 10600 10601 10601 10601 10601 10602 10603 10603 10604 10605 10606 10606 10607 10608 10608 10609 10609 10609 10610 10610 10611 10611 10612 10612 10612 10612 10612 10612 10611 10611 10610 10609 10609 10607 10606 10604 10603 10601 10600 10599 10598 10596 10595 10594 10592 10590 10589 10588 10586 10583 10581 10581 10580 10579 10577 10575 10573 10571 10569 10568 10566 10564 10564 10563 10560
10588 10588 10588 10588 10590 10591 10591 10591 10591 10591 10592 10592 10592 10592 10592 10593 10594 10594 10595 10596 10596 10596 10597 10596 10595 10596 10597 10598 10598 10598 10599 10600 10601 10602 10602 10602 10603 10603 10604 10605 10605 10606 10606 10607 10607 10606 10606 10606 10605 10605 10604 10603 10602 10601 10599 10597 10596 10594 10593 10592 10591 10590 10588 10586 10585 10583 10582 10580 10578 10575 10573 10572 10571 10570 10569 10567 10566 10563 10560 10559 10557 10555 10555 10554 10552
10581 10582 10582 10583 10585 10586 10586 10586 10585 10585 10586 10588 10587 10587 10587 10589 10589 10590 10591 10591 10591 10592 10592 10592 10591 10591 10591 10592 10592 10592 10593 10594 10595 10595 10595 10596 10597 10597 10597 10598 10598 10599 10600 10600 10600 10600 10600 10599 10599 10598 10596 10595 10594 10593 10591 10590 10588 10587 10586 10585 10584 10583 10581 10580 10578 10576 10575 10572 10570 10568 10565 10563 10562 10561 10560 10558 10557 10556 10552 10550 10548 10547 10546 10544 10544
10575 10575 10577 10578 10580 10580 10580 10580 10579 10580 10581 10582 10582 10582 10583 10584 10585 10586 10587 10586 10586 10586 10587 10587 10587 10587 10587 10587 10587 10587 10587 10588 10590 10589 10589 10590 10590 10590 10590 10590 10591 10592 10593 10593 10593 10592 10592 10591 10591 10590 10589 10587 10586 10585 10583 10582 10581 10580 10579 10578 10577 10575 10574 10573 10571 10569 10567 10564 10562 10560 10558 10555 10553 10552 10551 10548 10547 10547 10544 10540 10538 10537 10536 10534 10533
10569 10570 10572 10574 10574 10574 10574 10574 10574 10575 10576 10576 10576 10577 10578 10579 10580 10581 10582 10581 10581 10581 10581 10582 10582 10582 10582 10582 10581 10581 10581 10582 10583 10582 10582 10582 10582 10582 10583 10583 10584 10585 10585 10585 10584 10584 10584 10583 10583 10583 10582 10581 10579 10577 10575 10574 10574 10572 10571 10570 10568 10567 10565 10563 10561 10559 10558 10556 10554 10552 10551 10548 10545 10544 10542 10539 10538 10537 10534 10530 10528 10527 10526 10523 10522
10564 10565 10567 10568 10568 10568 10568 10568 10569 10570 10571 10571 10572 10572 10573 10574 10575 10576 10576 10577 10576 10576 10576 10577 10577 10577 10577 10577 10576 10576 10575 10576 10576 10575 10575 10575 10574 10574 10574 10575 10576 10577 10577 10577 10576 10576 10576 10576 10576 10576 10575 10574 10571 10568 10567 10567 10566 10564 10562 10561 10560 10558 10555 10553 10551 10550 10549 10547 10546 10544 10542 10541 10539 10537 10535 10531 10530 10529 10525 10521 10520 10518 10516 10513 10512
10558 10559 10560 10561 10561 10562 10563 10563 10564 10566 10566 10566 10567 10567 10568 10569 10570 10571 10571 10572 10571 10571 10571 10571 10572 10572 10572 10572 10572 10571 10571 10571 10570 10569 10569 10569 10568 10568 10568 10568 10569 10569 10570 10572 10571 10570 10569 10569 10568 10568 10569 10568 10563 10557 10558 10560 10558 10555 10553 10552 10550 10548 10546 10543 10542 10541 10540 10539 10538 10537 10535 10533 10532 10530 10527 10524 10522 10520 10516 10513 10512 10510 10508 10505 10501
10552 10554 10555 10555 10555 10556 10557 10558 10559 10560 10561 10561 10562 10562 10562 10564 10565 10565 10566 10567 10567 10566 10565 10565 10566 10567 10567 10567 10566 10565 10565 10565 10565 10564 10564 10564 10564 10564 10563 10564 10565 10565 10566 10567 10566 10564 10562 10561 10560 10560 10561 10561 10554 10547 10548 10550 10548 10545 10545 10543 10540 10539 10537 10534 10533 10533 10532 10530 10530 10529 10527 10525 10523 10521 10519 10516 10514 10510 10507 10505 10502 10501 10501 10497 10490
10546 10548 10549 10550 10551 10552 10552 10553 10554 10554 10555 10556 10556 10556 10557 10557 10558 10559 10561 10562 10562 10562 10561 10561 10561 10561 10562 10562 10561 10560 10559 10559 10559 10559 10559 10558 10558 10559 10559 10559 10559 10559 10560 10559 10558 10556 10554 10552 10551 10550 10550 10549 10544 10539 10539 10540 10538 10536 10535 10534 10531 10530 10528 10524 10522 10522 10521 10520 10519 10518 10517 10515 10513 10511 10510 10508 10504 10499 10497 10496 10490 10488 10489 10486 10480
10540 10541 10543 10545 10546 10547 10548 10548 10549 10549 10549 10549 10550 10550 10550 10551 10552 10553 10554 10556 10557 10557 10557 10557 10556 10555 10556 10557 10555 10554 10554 10554 10554 10553 10552 10552 10552 10552 10552 10552 10552 10552 10551 10550 10549 10549 10547 10543 10539 10536 10536 10537 10534 10531 10530 10530 10528 10526 10525 10524 10522 10521 10520 10515 10512 10513 10511 10509 10508 10507 10506 10504 10501 10501 10501 10499 10494 10491 10490 10487 10481 10478 10477 10473 10470
10534 10535 10536 10537 10539 10540 10541 10542 10543 10544 10544 10543 10543 10543 10543 10544 10545 10545 10547 10548 10549 10549 10550 10550 10549 10549 10550 10550 10549 10547 10547 10547 10547 10546 10546 10545 10545 10544 10544 10545 10544 10543 10541 10540 10540 10540 10538 10535 10530 10526 10526 10526 10524 10523 10522 10520 10518 10516 10515 10515 10513 10512 10511 10507 10504 10505 10503 10500 10498 10496 10495 10493 10490 10489 10489 10488 10485 10482 10480 10478 10473 10470 10467 10462 10460
10526 10527 10529 10530 10531 10532 10533 10534 10536 10536 10537 10537 10536 10537 10537 10537 10537 10538 10539 10540 10540 10541 10541 10542 10541 10542 10542 10542 10541 10540 10540 10539 10539 10538 10538 10537 10537 10536 10535 10535 10535 10534 10532 10530 10529 10529 10528 10527 10523 10519 10517 10516 10515 10514 10514 10512 10510 10507 10505 10505 10503 10502 10502 10498 10496 10495 10494 10491 10489 10485 10483 10482 10479 10477 10477 10476 10474 10472 10469 10466 10462 10458 10455 10451 10449
10519 10520 10521 10522 10523 10524 10526 10527 10528 10528 10529 10529 10529 10530 10530 10530 10530 10531 10531 10531 10531 10532 10532 10533 10533 10533 10533 10532 10532 10531 10531 10531 10530 10529 10528 10528 10527 10527 10526 10525 10525 10524 10523 10521 10519 10518 10517 10518 10515 10510 10509 10508 10505 10504 10503 10502 10501 10498 10496 10495 10494 10493 10492 10489 10487 10485 10483 10482 10480 10475 10472 10471 10468 10467 10466 10465 10465 10463 10459 10453 10449 10446 10444 10442 10437
10511 10512 10513 10514 10516 10517 10518 10519 10520 10520 10521 10522 10522 10522 10523 10522 10523 10524 10524 10523 10523 10523 10524 10524 10524 10524 10523 10523 10523 10522 10522 10522 10521 10521 10519 10518 10517 10517 10516 10516 10514 10513 10512 10511 10510 10507 10506 10506 10503 10500 10499 10498 10496 10494 10492 10491 10490 10488 10486 10484 10483 10482 10481 10479 10476 10475 10472 10470 10468 10465 10462 10460 10458 10457 10457 10457 10455 10451 10444 10439 10437 10437 10434 10430 10426
10503 10505 10506 10507 10508 10510 10511 10512 10512 10513 10513 10514 10514 10515 10515 10515 10515 10515 10515 10515 10515 10515 10515 10515 10515 10515 10514 10514 10513 10513 10512 10512 10512 10512 10510 10508 10507 10507 10506 10505 10504 10503 10501 10500 10499 10497 10495 10494 10492 10489 10487 10486 10484 10483 10482 10480 10478 10476 10475 10473 10471 10470 10469 10467 10464 10463 10461 10458 10455 10453 10451 10449 10448 10447 10447 10447 10442 10434 10428 10427 10426 10424 10421 10416 10414
10495 10497 10498 10499 10500 10501 10502 10504 10504 10505 10505 10506 10506 10507 10507 10507 10507 10506 10506 10506 10506 10506 10506 10505 10506 10505 10505 10505 10504 10503 10503 10503 10503 10501 10500 10499 10497 10496 10495 10494 10493 10492 10491 10490 10488 10486 10484 10482 10481 10478 10476 10474 10472 10471 10469 10467 10466 10464 10462 10460 10458 10457 10456 10454 10451 10450 10449 10446 10443 10440 10439 10437 10435 10434 10432 10431 10428 10421 10417 10416 10413 10410 10407 10404 10402
10487 10488 10489 10490 10491 10493 10494 10495 10495 10496 10497 10497 10498 10498 10498 10498 10498 10497 10497 10497 10497 10497 10496 10496 10496 10495 10495 10495 10494 10494 10494 10494 10492 10490 10489 10489 10487 10485 10483 10482 10480 10479 10478 10478 10477 10475 10472 10470 10469 10467 10465 10463 10460 10458 10457 10454 10452 10451 10449 10447 10445 10444 10443 10441 10438 10435 10435 10433 10430 10427 10425 10422 10420 10418 10415 10413 10413 10410 10406 10402 10399 10396 10394 10391 10389
10479 10480 10481 10481 10482 10483 10484 10485 10486 10487 10488 10488 10489 10489 10489 10489 10489 10488 10488 10488 10487 10487 10486 10486 10485 10485 10484 10484 10484 10484 10484 10483 10481 10478 10477 10476 10474 10472 10470 10468 10467 10465 10463 10462 10462 10461 10459 10456 10455 10454 10453 10451 10448 10446 10444 10442 10440 10438 10436 10433 10432 10430 10429 10427 10424 10420 10419 10418 10415 10412 10410 10408 10406 10403 10400 10399 10398 10396 10392 10388 10386 10383 10380 10377 10375
10472 10473 10473 10473 10473 10474 10474 10475 10476 10477 10478 10479 10480 10480 10480 10479 10479 10479 10478 10478 10477 10477 10476 10476 10475 10474 10474 10473 10472 10472 10472 10471 10469 10467 10465 10463 10461 10460 10458 10456 10454 10452 10450 10448 10447 10446 10444 10441 10440 10439 10438 10436 10435 10432 10430 10428 10426 10423 10421 10418 10416 10415 10414 10411 10409 10407 10406 10403 10401 10398 10396 10394 10392 10389 10388 10386 10384 10381 10379 10376 10373 10370 10366 10363 10361
10464 10465 10465 10465 10465 10465 10465 10466 10466 10467 10468 10469 10469 10469 10469 10468 10468 10468 10468 10467 10467 10466 10466 10465 10464 10463 10463 10462 10461 10460 10460 10458 10457 10455 10454 10451 10449 10447 10446 10444 10442 10440 10438 10436 10434 10432 10430 10428 10426 10424 10423 10422 10421 10419 10417 10415 10413 10410 10408 10406 10404 10403 10402 10399 10396 10395 10394 10392 10389 10386 10383 10380 10378 10376 10375 10373 10371 10368 10366 10363 10361 10357 10354 10352 10349
10455 10456 10457 10457 10457 10457 10458 10458 10458 10458 10458 10458 10458 10458 10457 10457 10456 10456 10456 10456 10455 10455 10455 10454 10453 10452 10451 10450 10449 10449 10448 10446 10445 10443 10441 10439 10437 10435 10433 10431 10430 10428 10426 10424 10421 10419 10417 10416 10414 10412 10410 10408 10408 10407 10405 10403 10400 10398 10396 10394 10393 10392 10390 10387 10385 10383 10381 10380 10377 10374 10370 10367 10364 10363 10362 10360 10357 10355 10352 10350 10347 10344 10342 10340 10337
10446 10447 10448 10448 10449 10449 10449 10449 10449 10449 10449 10449 10448 10448 10447 10446 10445 10445 10444 10444 10444 10443 10443 10442 10441 10441 10440 10439 10437 10437 10435 10434 10433 10431 10429 10427 10425 10422 10420 10419 10417 10416 10414 10411 10409 10407 10405 10404 10402 10399 10397 10396 10394 10393 10392 10389 10386 10384 10381 10379 10378 10377 10374 10372 10371 10368 10366 10364 10362 10359 10357 10353 10349 10347 10347 10346 10343 10340 10337 10335 10334 10332 10330 10328 10325
10436 10437 10438 10438 10439 10439 10440 10440 10440 10439 10439 10438 10438 10437 10436 10435 10435 10434 10433 10433 10433 10432 10431 10430 10430 10429 10428 10427 10425 10424 10422 10421 10420 10418 10417 10415 10412 10410 10408 10406 10405 10403 10401 10398 10396 10394 10392 10390 10388 10385 10383 10382 10381 10380 10378 10375 10371 10369 10366 10363 10361 10360 10357 10356 10355 10352 10349 10346 10345 10343 10340 10336 10334 10332 10331 10329 10326 10324 10321 10320 10319 10318 10317 10315 10312
10426 10427 10427 10428 10428 10429 10429 10429 10429 10428 10428 10427 10427 10426 10425 10425 10424 10424 10423 10422 10422 10421 10420 10419 10418 10417 10416 10414 10413 10411 10410 10408 10407 10406 10404 10402 10400 10398 10396 10394 10392 10390 10388 10385 10383 10381 10378 10376 10373 10370 10369 10368 10366 10366 10365 10361 10356 10354 10352 10349 10345 10343 10341 10340 10337 10335 10333 10330 10328 10325 10322 10319 10317 10316 10314 10312 10310 10308 10305 10304 10303 10302 10301 10300 10298
10416 10417 10417 10418 10418 10418 10418 10418 10417 10417 10416 10416 10416 10416 10415 10415 10414 10413 10413 10412 10411 10410 10409 10408 10406 10405 10404 10402 10400 10399 10398 10396 10394 10392 10390 10388 10387 10384 10382 10380 10378 10376 10373 10371 10369 10366 10364 10361 10359 10356 10354 10353 10351 10350 10349 10346 10342 10338 10335 10332 10328 10326 10325 10323 10319 10317 10316 10313 10310 10308 10305 10302 10300 10298 10298 10298 10296 10293 10290 10288 10287 10286 10285 10284 10282
10405 10406 10406 10407 10407 10407 10407 10407 10406 10406 10406 10405 10405 10404 10404 10404 10404 10403 10402 10401 10400 10399 10398 10396 10394 10393 10392 10390 10388 10386 10385 10383 10381 10379 10377 10375 10373 10371 10368 10366 10364 10361 10358 10356 10354 10351 10348 10346 10343 10341 10338 10337 10335 10334 10332 10330 10326 10321 10318 10315 10312 10309 10308 10306 10302 10299 10297 10295 10293 10291 10288 10285 10283 10283 10283 10283 10280 10278 10275 10273 10270 10269 10268 10268 10267
10394 10394 10395 10395 10396 10396 10396 10396 10395 10395 10394 10394 10394 10393 10393 10393 10392 10392 10391 10390 10389 10388 10387 10385 10382 10380 10378 10377 10375 10373 10371 10369 10367 10365 10363 10361 10359 10357 10354 10352 10349 10347 10344 10341 10339 10336 10334 10331 10329 10326 10323 10321 10319 10317 10315 10312 10309 10305 10302 10300 10297 10294 10293 10290 10286 10283 10281 10279 10277 10275 10272 10270 10269 10269 10268 10266 10264 10262 10260 10257 10255 10254 10253 10254 10253
10382 10383 10383 10384 10384 10385 10385 10385 10384 10384 10383 10383 10382 10382 10381 10381 10380 10380 10379 10378 10377 10376 10375 10373 10371 10368 10365 10362 10360 10359 10357 10355 10352 10350 10348 10346 10344 10342 10339 10336 10334 10331 10329 10326 10323 10321 10318 10316 10313 10311 10308 10306 10303 10301 10299 10297 10294 10290 10287 10284 10282 10280 10278 10275 10272 10270 10268 10265 10262 10261 10259 10257 10257 10255 10252 10250 10249 10247 10245 10243 10242 10241 10241 10240 10240
10370 10371 10371 10372 10372 10372 10373 10373 10373 10372 10372 10371 10371 10370 10369 10369 10368 10368 10367 10366 10365 10364 10362 10360 10359 10357 10354 10350 10347 10345 10343 10341 10339 10336 10333 10331 10329 10326 10323 10321 10318 10316 10313 10311 10308 10305 10302 10300 10298 10295 10292 10290 10287 10285 10283 10280 10278 10275 10272 10269 10267 10266 10264 10262 10260 10257 10254 10250 10249 10248 10247 10245 10243 10241 10238 10236 10235 10234 10232 10231 10231 10230 10230 10229 10228
10358 10358 10359 10359 10360 10360 10360 10360 10360 10360 10359 10359 10358 10357 10357 10356 10355 10355 10354 10354 10353 10351 10349 10348 10346 10344 10342 10339 10336 10333 10331 10329 10326 10323 10320 10317 10315 10312 10309 10307 10304 10302 10299 10297 10294 10291 10289 10287 10284 10281 10278 10275 10272 10270 10267 10265 10263 10261 10258 10255 10253 10252 10251 10249 10248 10245 10241 10238 10236 10236 10234 10232 10231 10229 10226 10224 10222 10222 10222 10221 10221 10220 10219 10218 10217
10346 10346 10346 10347 10347 10348 10348 10348 10347 10347 10346 10345 10345 10344 10344 10343 10342 10342 10342 10341 10340 10338 10336 10335 10333 10331 10329 10327 10324 10322 10319 10317 10314 10311 10309 10306 10303 10300 10297 10295 10292 10289 10287 10284 10281 10279 10277 10274 10271 10268 10265 10262 10260 10257 10254 10252 10251 10248 10246 10243 10242 10240 10239 10237 10236 10234 10230 10227 10225 10224 10222 10221 10220 10218 10215 10213 10212 10211 10211 10211 10212 10211 10209 10208 10207
10333 10333 10334 10335 10335 10335 10335 10335 10334 10334 10333 10332 10332 10331 10330 10330 10330 10330 10329 10328 10327 10325 10323 10321 10320 10318 10316 10314 10312 10309 10307 10304 10302 10299 10297 10294 10291 10289 10286 10283 10280 10278 10275 10272 10269 10267 10265 10262 10259 10256 10254 10251 10248 10245 10243 10241 10239 10237 10234 10232 10231 10230 10227 10225 10224 10223 10220 10217 10215 10213 10212 10211 10209 10207 10205 10204 10202 10201 10200 10201 10201 10201 10200 10199 10197
10320 10320 10321 10321 10321 10321 10321 10321 10321 10321 10320 10319 10319 10318 10317 10317 10317 10316 10316 10315 10313 10312 10310 10308 10307 10305 10304 10302 10299 10296 10294 10291 10289 10286 10284 10282 10279 10277 10274 10272 10269 10266 10263 10260 10257 10254 10252 10250 10248 10246 10243 10241 10238 10235 10232 10230 10228 10226 10224 10221 10220 10219 10218 10215 10214 10212 10210 10207 10205 10204 10202 10201 10199 10197 10196 10194 10193 10192 10191 10191 10190 10190 10189 10189 10188
10306 10307 10307 10307 10307 10308 10308 10308 10307 10307 10307 10307 10306 10304 10304 10303 10303 10303 10302 10301 10300 10298 10297 10295 10294 10292 10290 10288 10285 10283 10280 10278 10276 10274 10272 10270 10267 10265 10262 10260 10257 10254 10252 10249 10245 10243 10241 10239 10238 10236 10234 10232 10229 10226 10223 10221 10219 10216 10214 10212 10210 10209 10207 10206 10204 10202 10201 10199 10197 10194 10193 10191 10190 10188 10187 10185 10184 10183 10183 10182 10181 10180 10179 10179 10178
10292 10292 10293 10293 10294 10294 10294 10294 10294 10294 10294 10293 10292 10291 10290 10290 10290 10289 10288 10287 10286 10285 10284 10282 10280 10279 10277 10274 10272 10269 10267 10265 10263 10261 10260 10258 10256 10254 10251 10249 10246 10243 10241 10238 10235 10233 10231 10230 10228 10226 10224 10222 10220 10217 10214 10212 10211 10208 10205 10203 10201 10199 10197 10196 10195 10193 10191 10190 10188 10186 10184 10182 10181 10180 10179 10177 10176 10175 10174 10173 10172 10172 10171 10171 10170
10279 10279 10279 10280 10281 10281 10282 10281 10281 10281 10280 10280 10279 10278 10277 10277 10277 10276 10275 10274 10274 10272 10271 10269 10268 10266 10264 10262 10259 10257 10255 10253 10252 10250 10249 10247 10245 10243 10241 10239 10236 10234 10231 10229 10227 10225 10222 10220 10218 10217 10215 10213 10210 10207 10205 10204 10203 10201 10198 10196 10193 10190 10188 10187 10185 10184 10182 10181 10179 10178 10176 10174 10173 10171 10170 10169 10168 10167 10166 10165 10165 10164 10164 10163 10163
10267 10267 10267 10267 10268 10269 10269 10269 10269 10268 10268 10268 10267 10266 10265 10265 10265 10265 10264 10263 10262 10261 10259 10257 10256 10254 10252 10250 10248 10247 10245 10243 10242 10241 10239 10238 10236 10234 10232 10229 10227 10225 10223 10221 10218 10216 10214 10212 10209 10207 10206 10205 10202 10199 10196 10194 10194 10193 10191 10189 10186 10184 10182 10179 10177 10176 10174 10173 10171 10170 10168 10167 10165 10164 10162 10161 10160 10160 10159 10158 10158 10157 10157 10156 10156
10255 10255 10255 10256 10256 10257 10257 10257 10257 10257 10257 10256 10256 10255 10254 10254 10254 10253 10253 10252 10251 10249 10248 10247 10245 10244 10242 10241 10239 10237 10236 10234 10233 10232 10230 10229 10227 10225 10222 10220 10218 10216 10214 10212 10210 10208 10206 10204 10201 10199 10197 10197 10195 10192 10189 10186 10185 10184 10183 10181 10179 10178 10176 10174 10171 10169 10168 10166 10164 10163 10161 10160 10158 10157 10155 10154 10153 10153 10152 10151 10151 10150 10150 10150 10149
10243 10244 10244 10244 10245 10245 10246 10246 10246 10246 10246 10245 10245 10245 10244 10244 10244 10243 10242 10241 10240 10239 10238 10237 10236 10235 10233 10231 10230 10229 10227 10226 10225 10223 10221 10220 10217 10215 10213 10212 10211 10209 10207 10205 10203 10201 10198 10196 10194 10191 10189 10188 10187 10185 10182 10180 10178 10176 10175 10174 10172 10171 10169 10167 10166 10164 10162 10160 10158 10156 10155 10153 10152 10151 10150 10148 10147 10146 10145 10145 10144 10144 10144 10143 10143
10232 10232 10233 10233 10234 10234 10235 10235 10235 10235 10235 10235 10235 10235 10235 10234 10233 10233 10232 10231 10230 10230 10229 10228 10227 10226 10224 10223 10222 10220 10219 10218 10217 10215 10213 10211 10209 10206 10205 10204 10203 10201 10199 10197 10196 10194 10191 10189 10186 10184 10181 10180 10179 10177 10175 10173 10171 10170 10169 10167 10166 10164 10163 10161 10159 10158 10156 10154 10152 10151 10149 10147 10146 10145 10144 10143 10141 10140 10139 10139 10138 10138 10138 10137 10137
10221 10221 10222 10223 10223 10224 10225 10225 10225 10225 10225 10226 10226 10226 10225 10224 10224 10223 10223 10222 10221 10220 10220 10219 10218 10217 10216 10214 10213 10212 10211 10210 10209 10208 10206 10203 10201 10199 10198 10197 10196 10194 10192 10190 10188 10186 10184 10182 10180 10177 10175 10173 10172 10170 10169 10167 10165 10164 10162 10161 10160 10159 10157 10155 10154 10152 10150 10148 10147 10145 10144 10142 10141 10139 10138 10137 10136 10135 10134 10134 10133 10132 10132 10131 10131
10211 10212 10212 10213 10214 10214 10215 10215 10215 10215 10216 10216 10216 10216 10216 10215 10215 10214 10213 10213 10212 10211 10211 10210 10209 10208 10207 10206 10205 10204 10203 10202 10201 10200 10198 10195 10193 10192 10191 10190 10188 10187 10185 10184 10181 10179 10177 10175 10173 10171 10169 10167 10166 10164 10163 10161 10160 10158 10156 10155 10154 10153 10151 10150 10148 10146 10145 10143 10142 10140 10139 10137 10136 10134 10133 10132 10131 10131 10130 10129 10128 10127 10127 10126 10126